Home > Weather > Neuss > Past weeks

Flag for Germany Weather for the Past 2 Weeks in Neuss, North Rhine-Westphalia, Germany

Now
39 °F

Light rain. Cloudy.


Feels Like: 33 °F
Forecast: 36 / 42 °F
Wind: 9 mph from Southeast

Location: Duesseldorf

Current Time: Feb 13, 2016 at 5:34:12 PM

Latest Report: Feb 13, 2016 at 5:20 PM


Visibility: N/A

Pressure: 29.09 "Hg

Humidity: 87%

Dew point: 36 °F

Location of NeussLocation

Historic Weather in Neuss — Graph

°F

Neuss Temperature Yesterday

Maximum temperature yesterday: 43 °F (at 11:50 AM)
Minimum temperature yesterday: 34 °F (at 8:20 PM)
Average temperature yesterday: 39 °F

High & Low Weather Summary for the Past Weeks

 TemperatureHumidityPressure
High54 °F (Jan 31, 11:50 PM)100% (Jan 31, 6:20 PM)30.30 "Hg (Jan 31, 6:20 PM)
Low27 °F (Feb 13, 3:20 AM)57% (Feb 3, 1:50 PM)28.77 "Hg (Feb 9, 4:20 PM)
Average44 °F83%29.74 "Hg
* Reported Jan 29 4:20 PM — Feb 13 4:20 PM, Neuss, Weather by CustomWeather, © 2016

Note: Actual official high and low records may vary slightly from our data, if they occured in-between our weather recording intervals... More about our weather records

Advertising

Neuss Weather History for the Previous 24 Hours

 ConditionsComfort  
Time TempWeatherWind HumidityBarometerVisibility
4:20 PM
Sat, Feb 13
39 °FLight rain. Partly sunny.12 mph81%29.12 "HgN/A
3:50 PM39 °FLight rain. Partly sunny.13 mph81%29.12 "HgN/A
3:20 PM41 °FLight rain. Mostly cloudy.14 mph76%29.15 "HgN/A
2:50 PM41 °FLight rain. Partly sunny.12 mph70%29.15 "HgN/A
2:20 PM41 °FPartly sunny.12 mph70%29.15 "HgN/A
1:50 PM41 °FBroken clouds.12 mph70%29.18 "HgN/A
1:20 PM41 °FPartly sunny.13 mph70%29.21 "HgN/A
12:50 PM41 °FSunny.14 mph70%29.21 "Hg10 mi
12:20 PM39 °FSunny.10 mph75%29.24 "Hg10 mi
11:50 AM39 °FPartly sunny.10 mph70%29.24 "HgN/A
11:20 AM39 °FPassing clouds.10 mph70%29.27 "HgN/A
10:50 AM39 °FSunny.12 mph75%29.27 "Hg10 mi
10:20 AM37 °FSunny.10 mph75%29.27 "Hg10 mi
9:50 AM36 °FPassing clouds.6 mph81%29.30 "HgN/A
9:20 AM32 °FSunny.2 mph93%29.30 "Hg10 mi
8:50 AM30 °FSunny.3 mph93%29.33 "Hg10 mi
8:20 AM28 °FSunny.2 mph100%29.33 "Hg10 mi
7:50 AM28 °FClear.2 mph93%29.33 "Hg10 mi
7:20 AM27 °FPassing clouds.3 mph100%29.33 "HgN/A
6:50 AM27 °FPassing clouds.2 mph100%29.36 "HgN/A
6:20 AM27 °FPassing clouds.5 mph93%29.36 "HgN/A
5:50 AM27 °FPassing clouds.No wind93%29.36 "HgN/A
5:20 AM28 °FPassing clouds.No wind93%29.36 "HgN/A
4:50 AM27 °FPassing clouds.No wind100%29.36 "HgN/A
4:20 AM27 °FClear.1 mph100%29.36 "Hg10 mi
3:20 AM27 °FClear.No wind100%29.39 "Hg10 mi
2:50 AM28 °FClear.No wind93%29.39 "Hg10 mi
2:20 AM30 °FClear.No wind93%29.39 "Hg10 mi
1:50 AM32 °FClear.No wind87%29.39 "Hg10 mi
1:20 AM32 °FClear.3 mph87%29.42 "Hg10 mi
12:50 AM34 °FClear.7 mph81%29.42 "Hg10 mi
12:20 AM34 °FClear.8 mph81%29.42 "Hg10 mi
11:50 PM
Fri, Feb 12
34 °FClear.8 mph81%29.42 "Hg10 mi
11:20 PM34 °FClear.8 mph81%29.42 "Hg10 mi
10:20 PM34 °FClear.6 mph81%29.42 "Hg10 mi
9:50 PM34 °FClear.6 mph81%29.42 "Hg10 mi
9:20 PM34 °FPassing clouds.6 mph81%29.42 "HgN/A
8:50 PM34 °FPassing clouds.7 mph81%29.42 "HgN/A
8:20 PM34 °FPassing clouds.6 mph81%29.42 "HgN/A
7:50 PM36 °FPassing clouds.6 mph75%29.42 "HgN/A
7:20 PM37 °FPassing clouds.5 mph70%29.42 "HgN/A
6:50 PM37 °FPassing clouds.5 mph75%29.45 "HgN/A
6:20 PM37 °FPassing clouds.6 mph75%29.45 "HgN/A
5:50 PM39 °FPassing clouds.6 mph65%29.45 "HgN/A
5:20 PM41 °FPartly sunny.10 mph61%29.45 "HgN/A
Weather by CustomWeather, © 2016

See weather overviewHow to use our weather pages